DW2659 Weather Reports


time (UTC)temp
F
wind
direction
speed
knots
gust
knots
rain 1hr
in
rain 24hr
in
rain mn
in
humidity
%
barometer
mb
20260503002403 56 279 0.0 0.0 0.00 0.00 0.00 56 1014.6
20260503001903 56 279 0.0 0.0 0.00 0.00 0.00 54 1014.6
20260503001404 56 279 0.0 0.0 0.00 0.00 0.00 54 1014.4
20260503000902 56 279 0.0 0.0 0.00 0.00 0.00 54 1014.0
20260503000402 56 279 0.0 0.0 0.00 0.00 0.00 55 1014.0
20260502235904 56 279 0.0 0.0 0.00 0.00 0.00 54 1014.0
20260502235403 57 279 0.0 0.0 0.00 0.00 0.00 52 1013.9
20260502234903 57 279 0.0 0.0 0.00 0.00 0.00 52 1013.9
20260502234404 57 279 0.0 0.0 0.00 0.00 0.00 52 1013.9
20260502233903 58 279 0.0 0.0 0.00 0.00 0.00 51 1013.9
20260502233403 59 279 0.9 1.7 0.00 0.00 0.00 51 1013.9
20260502232403 60 313 0.9 2.6 0.00 0.00 0.00 48 1013.9
20260502231903 60 286 0.9 1.7 0.00 0.00 0.00 48 1013.9
20260502231404 61 325 0.0 0.0 0.00 0.00 0.00 47 1013.9
20260502230902 62 16 0.0 0.0 0.00 0.00 0.00 45 1013.9
20260502230404 62 355 0.9 0.9 0.00 0.00 0.00 48 1013.8
20260502225902 63 355 0.9 0.9 0.00 0.00 0.00 40 1014.0
20260502225403 63 355 0.9 1.7 0.00 0.00 0.00 35 1014.0
20260502224904 63 5 0.9 1.7 0.00 0.00 0.00 36 1014.0
20260502224403 64 5 0.9 1.7 0.00 0.00 0.00 35 1013.9
20260502223903 64 5 0.9 1.7 0.00 0.00 0.00 32 1013.9
20260502223404 64 18 0.9 2.6 0.00 0.00 0.00 32 1013.9
20260502221904 65 33 1.7 2.6 0.00 0.00 0.00 32 1013.8
20260502221403 65 39 1.7 2.6 0.00 0.00 0.00 32 1013.6
20260502220903 65 27 0.9 2.6 0.00 0.00 0.00 30 1013.6
20260502220404 65 5 0.9 4.3 0.00 0.00 0.00 29 1013.6
20260502215902 66 1 2.6 6.1 0.00 0.00 0.00 28 1013.4
20260502215403 66 23 0.9 4.3 0.00 0.00 0.00 31 1013.4
20260502214904 66 1 1.7 7.0 0.00 0.00 0.00 33 1013.4
20260502214403 66 17 1.7 4.3 0.00 0.00 0.00 30 1013.4
20260502213902 66 26 1.7 4.3 0.00 0.00 0.00 32 1013.4
20260502213405 65 61 0.9 2.6 0.00 0.00 0.00 32 1013.4
20260502212902 65 60 0.9 2.6 0.00 0.00 0.00 32 1013.3
20260502212403 65 32 0.9 1.7 0.00 0.00 0.00 34 1013.3
20260502211904 65 31 1.7 2.6 0.00 0.00 0.00 33 1013.3
20260502211403 66 30 1.7 4.3 0.00 0.00 0.00 33 1013.2
20260502210903 66 58 1.7 2.6 0.00 0.00 0.00 33 1013.2
20260502205903 66 31 1.7 4.3 0.00 0.00 0.00 30 1013.3
20260502205403 67 35 1.7 4.3 0.00 0.00 0.00 29 1013.3
20260502204904 67 39 2.6 5.2 0.00 0.00 0.00 32 1013.3
20260502204402 67 31 1.7 2.6 0.00 0.00 0.00 35 1013.2
20260502203903 66 6 0.9 2.6 0.00 0.00 0.00 32 1013.2
20260502203404 66 34 0.9 4.3 0.00 0.00 0.00 31 1013.3
20260502202903 67 25 1.7 5.2 0.00 0.00 0.00 31 1013.5
20260502202403 67 30 2.6 6.1 0.00 0.00 0.00 30 1013.5
20260502201904 67 20 2.6 5.2 0.00 0.00 0.00 29 1013.5
20260502201403 67 50 2.6 4.3 0.00 0.00 0.00 32 1013.4
20260502200404 67 31 2.6 5.2 0.00 0.00 0.00 31 1013.4
20260502195903 67 342 2.6 4.3 0.00 0.00 0.00 31 1013.8
20260502194905 67 32 1.7 2.6 0.00 0.00 0.00 35 1013.8
20260502194404 66 40 3.5 7.0 0.00 0.00 0.00 30 1013.8
20260502193903 66 14 1.7 5.2 0.00 0.00 0.00 35 1013.8
20260502193404 67 51 2.6 4.3 0.00 0.00 0.00 36 1013.8
20260502192903 67 15 1.7 2.6 0.00 0.00 0.00 36 1013.9
20260502192403 66 28 1.7 2.6 0.00 0.00 0.00 36 1013.9
20260502191904 67 29 1.7 5.2 0.00 0.00 0.00 33 1013.8
20260502190903 67 26 2.6 6.1 0.00 0.00 0.00 35 1013.8
20260502190405 66 26 1.7 2.6 0.00 0.00 0.00 33 1013.8
20260502185903 65 296 1.7 4.3 0.00 0.00 0.00 33 1014.1
20260502185404 65 21 1.7 4.3 0.00 0.00 0.00 33 1014.1
20260502184904 65 18 1.7 2.6 0.00 0.00 0.00 32 1014.1
20260502184404 66 9 1.7 4.3 0.00 0.00 0.00 30 1014.1
20260502183903 66 24 3.5 7.0 0.00 0.00 0.00 32 1014.1
20260502183404 65 19 1.7 4.3 0.00 0.00 0.00 34 1014.1
20260502182903 65 29 1.7 4.3 0.00 0.00 0.00 32 1014.1
20260502181904 65 24 1.7 5.2 0.00 0.00 0.00 30 1014.1
20260502181403 67 18 2.6 4.3 0.00 0.00 0.00 32 1014.1
20260502180903 66 60 0.9 2.6 0.00 0.00 0.00 35 1014.1
20260502180405 66 25 2.6 5.2 0.00 0.00 0.00 34 1014.1
20260502170404 64 9 1.7 4.3 0.00 0.00 0.00 39 1014.3
20260502163903 63 21 2.6 6.1 0.00 0.00 0.00 38 1014.7
20260502163404 63 19 1.7 4.3 0.00 0.00 0.00 42 1014.7
20260502162903 62 15 0.9 2.6 0.00 0.00 0.00 41 1014.7
20260502161904 62 19 1.7 4.3 0.00 0.00 0.00 40 1014.7
20260502161403 61 0 1.7 5.2 0.00 0.00 0.00 44 1014.8
20260502160904 61 26 1.7 4.3 0.00 0.00 0.00 43 1014.8
20260502160405 61 19 1.7 4.3 0.00 0.00 0.00 42 1014.8
20260502151905 60 0 0.9 2.6 0.00 0.00 0.00 47 1014.4
20260502130404 55 353 0.9 2.6 0.00 0.00 0.00 57 1013.7
20260502123404 54 40 1.7 2.6 0.00 0.00 0.00 58 1013.5
20260502122903 54 34 1.7 2.6 0.00 0.00 0.00 58 1013.5
20260502122405 53 23 1.7 4.3 0.00 0.00 0.00 58 1013.5
20260502121904 53 35 0.9 2.6 0.00 0.00 0.00 61 1013.5
20260502120904 53 34 0.9 1.7 0.00 0.00 0.00 60 1013.4
20260502115903 52 27 0.9 2.6 0.00 0.00 0.00 60 1013.4
20260502115404 52 5 0.9 1.7 0.00 0.00 0.00 59 1013.4
20260502114904 52 17 0.9 2.6 0.00 0.00 0.00 60 1013.4
20260502114403 52 350 0.9 2.6 0.00 0.00 0.00 58 1013.6
20260502113905 52 26 0.9 1.7 0.00 0.00 0.00 58 1013.6
20260502113404 52 26 0.9 2.6 0.00 0.00 0.00 58 1013.6
20260502112904 52 12 0.9 1.7 0.00 0.00 0.00 58 1013.4
20260502112405 52 22 0.9 1.7 0.00 0.00 0.00 58 1013.4
20260502111403 52 355 1.7 2.6 0.00 0.00 0.00 57 1013.4
20260502110905 52 37 0.9 2.6 0.00 0.00 0.00 58 1013.4
20260502110404 52 34 0.9 2.6 0.00 0.00 0.00 57 1013.4
20260502105906 52 44 0.9 2.6 0.00 0.00 0.00 58 1012.8
20260502104904 52 43 0.9 2.6 0.00 0.00 0.00 58 1012.8
20260502104404 52 27 0.9 2.6 0.00 0.00 0.00 58 1012.8
20260502103904 52 27 0.9 2.6 0.00 0.00 0.00 57 1012.7
20260502103403 53 347 0.0 1.7 0.00 0.00 0.00 58 1012.8
20260502102903 53 340 0.9 2.6 0.00 0.00 0.00 57 1012.8
20260502102405 53 5 0.9 2.6 0.00 0.00 0.00 56 1012.8
20260502101904 53 30 0.9 2.6 0.00 0.00 0.00 56 1012.8
20260502101404 53 10 0.9 1.7 0.00 0.00 0.00 56 1012.8
20260502100905 53 5 0.0 1.7 0.00 0.00 0.00 55 1013.0
20260502100404 53 5 0.9 1.7 0.00 0.00 0.00 55 1013.0
20260502091403 54 11 0.9 2.6 0.00 0.00 0.00 54 1012.7
20260502090405 54 42 0.9 2.6 0.00 0.00 0.00 53 1012.7
20260502071404 56 11 1.7 2.6 0.00 0.00 0.00 48 1013.7
20260502070904 56 343 1.7 2.6 0.00 0.00 0.00 48 1013.7
20260502070405 56 30 0.9 2.6 0.00 0.00 0.00 48 1013.7
20260502065906 56 30 0.9 2.6 0.00 0.00 0.00 49 1013.7
20260502064905 56 9 0.0 1.7 0.00 0.00 0.00 48 1013.7
20260502063904 56 23 0.9 5.2 0.00 0.00 0.00 49 1013.7
20260502063405 56 10 0.9 1.7 0.00 0.00 0.00 50 1013.8
20260502062903 56 27 0.9 1.7 0.00 0.00 0.00 50 1014.0
20260502061905 57 355 0.9 1.7 0.00 0.00 0.00 49 1014.0
20260502061404 57 7 0.9 1.7 0.00 0.00 0.00 50 1014.0
20260502060904 57 355 0.0 2.6 0.00 0.00 0.00 53 1014.0
20260502060405 57 348 0.9 2.6 0.00 0.00 0.00 52 1014.0
20260502055904 57 357 0.9 2.6 0.00 0.00 0.00 53 1013.9
20260502055404 57 28 0.9 2.6 0.00 0.00 0.00 54 1014.0
20260502054404 57 5 0.0 0.0 0.00 0.00 0.00 55 1013.5
20260502053904 57 5 0.0 0.0 0.00 0.00 0.00 55 1013.5
20260502053405 57 350 0.0 0.0 0.00 0.00 0.00 55 1013.5
20260502052904 57 20 0.9 1.7 0.00 0.00 0.00 57 1013.5
20260502051905 57 348 0.9 1.7 0.00 0.00 0.00 57 1013.5
20260502051404 58 46 0.9 1.7 0.00 0.00 0.00 57 1013.6
20260502050904 58 96 0.9 4.3 0.00 0.00 0.00 56 1013.6
20260502050405 58 11 0.9 2.6 0.00 0.00 0.00 55 1013.6
20260502045904 58 5 0.9 1.7 0.00 0.00 0.00 56 1013.6
20260502045404 58 338 0.9 2.6 0.00 0.00 0.00 56 1013.6
20260502044905 58 15 0.9 0.9 0.00 0.00 0.00 57 1013.6
20260502044404 58 15 0.9 2.6 0.00 0.00 0.00 58 1013.6
20260502043904 58 346 0.0 1.7 0.00 0.00 0.00 59 1013.6
20260502043406 58 346 0.0 1.7 0.00 0.00 0.00 60 1013.6
20260502042404 58 355 0.9 1.7 0.00 0.00 0.00 61 1013.7
20260502041905 58 355 0.9 2.6 0.00 0.00 0.00 61 1013.7
20260502040904 58 29 0.9 1.7 0.00 0.00 0.00 63 1014.0
20260502035903 57 58 0.0 1.7 0.00 0.00 0.00 66 1013.8
20260502035404 57 58 0.0 1.7 0.00 0.00 0.00 66 1013.8
20260502034906 57 58 0.0 1.7 0.00 0.00 0.00 68 1013.8
20260502034404 57 58 0.9 1.7 0.00 0.00 0.00 68 1013.8
20260502033904 57 86 0.0 0.9 0.00 0.00 0.00 73 1013.8
20260502032404 57 14 0.0 0.0 0.00 0.00 0.00 72 1013.8
20260502031905 57 14 0.0 0.0 0.00 0.00 0.00 72 1013.8
20260502030904 57 14 0.0 0.0 0.00 0.00 0.00 74 1013.6
20260502025904 57 3 0.0 1.7 0.00 0.00 0.00 75 1013.4
20260502025404 57 23 0.9 1.7 0.00 0.00 0.00 75 1013.4
20260502024903 57 267 0.9 2.6 0.00 0.00 0.00 75 1013.4
20260502024403 57 248 0.0 0.9 0.00 0.00 0.00 74 1013.4
20260502023903 57 248 0.0 0.9 0.00 0.00 0.00 75 1013.4
20260502023404 57 248 0.0 0.9 0.00 0.00 0.00 75 1013.4
20260502022402 57 248 0.0 0.9 0.00 0.00 0.00 76 1013.3
20260502021903 57 248 0.0 0.0 0.00 0.00 0.00 75 1013.3
20260502020903 57 248 0.0 0.9 0.00 0.00 0.00 75 1013.3
20260502020403 57 248 0.0 0.0 0.00 0.00 0.00 74 1013.3
20260502015903 58 248 0.0 0.0 0.00 0.00 0.00 74 1013.2
20260502015403 58 248 0.0 0.0 0.00 0.00 0.00 74 1013.2
20260502014402 58 248 0.0 0.0 0.00 0.00 0.00 73 1013.2
20260502013902 58 248 0.0 0.0 0.00 0.00 0.00 73 1013.2
20260502013404 58 248 0.0 0.0 0.00 0.00 0.00 72 1013.2
20260502012903 58 248 0.0 0.0 0.00 0.00 0.00 71 1012.8
20260502012402 58 248 0.0 0.0 0.00 0.00 0.00 71 1012.8
20260502011904 58 248 0.0 0.0 0.00 0.00 0.00 70 1012.8
20260502011402 59 248 0.0 0.0 0.00 0.00 0.00 70 1012.7
20260502010903 59 248 0.0 0.0 0.00 0.00 0.00 69 1012.7
20260502005403 59 248 0.0 0.0 0.00 0.00 0.00 68 1012.4
20260502004904 60 248 0.0 0.0 0.00 0.00 0.00 67 1012.4
20260502004402 60 248 0.0 0.0 0.00 0.00 0.00 67 1012.3
20260502003903 60 248 0.0 0.0 0.00 0.00 0.00 66 1012.3
20260502003404 60 248 0.0 0.0 0.00 0.00 0.00 66 1012.3